Location: Arcueil
(48.7999°N, 2.3326°E)
Time: 20:24:14
(UTC+00:00)

EO-79 - Pass Details

Date: 27 June 2024
Orbit: 555 x 577 km, 98.0° (Epoch: 18 July)

Event Time Altitude Azimuth Distance (km) Brightness Sun altitude
Rises 02:38:45 0° 22° (NNE) 2,753 ? -9.0°
Reaches altitude 10° 02:41:04 10° 32° (NNE) 1,851 ? -8.8°
Maximum altitude 02:44:42 33° 97° (E) 957 ? -8.4°
Drops below altitude 10° 02:48:18 10° 162° (SSE) 1,835 ? -8.1°
Sets 02:50:35 0° 172° (S) 2,725 ? -7.8°
Enters shadow 02:50:40 - 172° (S) 2,765 ? -7.8°
